Regional Weather Roundup
Issued by NWS

Home | Current Version | Previous Version | Text Only | Print | Product List | Glossary Off
Versions: 1 2 3 4 5 6 7 8 9 10 11 12 13 14 15 16 17 18 19 20 21 22 23 24 25 26 27 28 29 30 31 32 33 34 35 36 37 38 39 40 41 42 43 44 45 46 47 48 49 50

000
ASUS43 KTOP 251308
RWRKS

WEATHER ROUNDUP FOR KANSAS
NATIONAL WEATHER SERVICE GOODLAND KS
800 AM CDT SAT MAR 25 2017

NOTE:  "FAIR" INDICATES FEW OR NO CLOUDS BELOW 12,000 FEET WITH NO
SIGNIFICANT WEATHER AND/OR OBSTRUCTIONS TO VISIBILITY.

KSZ001>006-013>018-027>032-041>047-251400-
NORTHWEST KANSAS

CITY           SKY/WX    TMP DP  RH WIND       PRES   REMARKS
GOODLAND       CLEAR     32  29  88 NW10      30.05R WCI  24
HAYS             N/A     42  38  85 N18G28    29.99R
HILL CITY      CLOUDY    39  36  89 N12       30.03R WCI  32
RUSSELL        CLOUDY    41  39  93 N14       29.97S
$$

KSZ061>065-074>080-084>089-251400-
SOUTHWEST KANSAS

CITY           SKY/WX    TMP DP  RH WIND       PRES   REMARKS
DODGE CITY     MOCLDY    40  38  93 N13       29.99R WCI  32
ELKHART          N/A     34  24  67 W14         N/A  WCI  25
GARDEN CITY    CLEAR     35  32  88 NW16      30.02R WCI  25
GREAT BEND     CLOUDY    42  38  85 N14       29.97S
LIBERAL        CLEAR     36  28  75 NW10      30.04R WCI  28
PRATT          CLOUDY    40  35  84 N23G29    29.96R WCI  29
$$

KSZ066>073-081>083-090>101-251400-
SOUTHEAST KANSAS

CITY           SKY/WX    TMP DP  RH WIND       PRES   REMARKS
CHANUTE        CLOUDY    46  44  93 NW16      29.85S
COFFEYVILLE    LGT RAIN  47  46  97 NW18G24   29.86R
HUTCHINSON     CLOUDY    42  40  92 N21G26    29.94R
MEDICINE LODGE   N/A     44  38  79 N17       29.94S
NEWTON         LGT RAIN  42  40  92 N22G31    29.91R
PARSONS        LGT RAIN  47  45  93 NW13      29.86R
WICHITA INTL   CLOUDY    43  42  97 N23G30    29.91R
WICHITA JABRA  CLOUDY    43  41  93 NW18      29.91R
WICHITA MCCONL CLOUDY    43  40  89 N18G24    29.91R
WINFIELD       LGT RAIN  44  42  93 NW15      29.91R
$$

KSZ007>012-019>026-033>040-048>060-102>105-251400-
NORTHEAST KANSAS

CITY           SKY/WX    TMP DP  RH WIND       PRES   REMARKS
CONCORDIA      CLOUDY    39  38  96 N13G22    29.96R WCI  31
EMPORIA        LGT RAIN  43  42  97 NW12G25   29.87R
LAWRENCE       LGT RAIN  47  46  97 NW13      29.81R
MANHATTAN      CLOUDY    43  40  89 N10G17    29.91R
MARYSVILLE     RAIN      41  39  93 N17G26    29.90S
OLATHE IND     CLOUDY    46  46 100 W8        29.81R
OLATHE EXE     CLOUDY    47  47 100 NW6       29.79R FOG
SALINA         LGT RAIN  43  40  89 N18       29.95R
TOPEKA BILLARD RAIN      44  44 100 NW13      29.84R FOG
TOPEKA FORBES  LGT RAIN  45  43  93 NW17      29.83R FOG
$$



USA.gov is the U.S. government's official web portal to all federal, state and local government web resources and services.